Theta_e
319 321 321 322 321 321 321 322 322 321 321 323 324 324 325 324 324 324 324 323 323 325 325 324 322 320 319 318 320 324 326 326 326 325 326 324 321 317 316 316 316 316 317 316
320 321 319 318 320 322 323 322 323 321 320 322 323 324 323 322 323 323 323 322 322 322 323 324 325 323 322 321 320 319 323 326 326 325 322 325 325 322 319 317 317 317 317 317
319 318 318 318 319 319 319 320 321 321 320 321 323 324 322 321 322 322 322 321 321 321 321 322 321 324 325 324 322 322 320 321 325 325 325 325 327 326 324 322 320 318 317 317
320 318 318 319 319 320 320 318 319 320 320 322 320 325 321 320 319 320 320 321 322 323 323 322 322 322 322 326 325 324 323 320 320 324 326 325 324 323 319 320 321 321 320 320
317 318 319 319 319 319 320 318 321 320 320 320 322 323 320 319 320 320 320 320 321 322 323 323 322 323 323 323 326 326 324 324 321 320 323 326 325 324 323 322 321 321 322 322
316 315 317 317 318 318 319 320 321 320 320 323 322 323 324 322 321 320 319 319 320 321 322 322 322 322 322 323 324 325 325 324 324 322 319 320 322 324 325 324 323 323 323 322
313 315 316 317 318 318 319 321 323 324 323 324 320 324 323 321 321 320 321 321 320 319 320 320 320 321 320 322 322 324 323 325 325 326 325 323 321 319 324 323 323 323 323 323
316 316 315 316 318 319 320 319 321 323 323 322 319 324 322 319 319 320 320 319 319 318 318 317 316 317 319 320 322 323 321 322 324 326 327 325 324 322 320 321 322 323 322 322
316 315 315 314 315 317 319 321 318 321 315 320 321 320 319 318 319 319 318 317 315 314 312 311 311 312 315 319 319 321 320 321 322 325 326 325 324 323 322 320 320 321 321 321
314 316 316 314 315 316 317 317 320 321 323 321 318 319 320 319 319 319 317 314 312 315 314 310 310 310 311 313 313 316 317 317 319 321 322 323 323 324 324 320 320 320 319 320
314 315 316 316 317 318 317 317 317 317 318 319 318 317 317 318 319 318 317 312 312 314 315 315 317 314 309 310 313 316 316 316 315 316 317 318 320 322 323 322 320 319 319 320
314 315 316 315 315 316 316 318 318 320 318 319 319 321 313 315 316 314 313 310 312 314 315 315 316 316 317 310 314 316 316 316 315 314 316 316 318 320 322 322 321 319 319 320
313 314 314 317 314 313 317 317 317 317 316 320 322 320 315 314 315 314 314 314 313 315 316 315 315 316 317 317 309 319 315 316 316 313 314 315 316 318 319 321 321 321 320 320
312 313 313 317 316 317 317 318 317 318 320 320 320 319 318 316 316 316 316 316 316 314 313 315 316 316 317 317 313 309 315 312 313 312 312 314 316 317 318 319 320 321 320 321
312 314 312 313 314 315 316 317 318 319 318 319 319 318 318 317 316 317 316 316 316 315 315 315 315 316 316 314 314 310 308 309 311 311 311 313 315 317 318 319 320 321 321 322
311 313 312 312 313 314 315 314 317 317 317 318 318 318 317 317 316 316 315 315 315 315 315 315 315 315 315 316 316 309 308 308 309 311 312 311 313 315 317 319 320 321 322 323
312 310 312 313 310 311 314 313 313 315 315 317 318 317 316 316 315 315 315 315 314 314 314 314 314 313 314 315 314 309 309 309 308 309 311 312 314 315 317 318 319 321 322 323
310 311 312 313 310 314 312 309 312 314 313 314 315 315 315 314 314 313 313 313 313 311 310 311 312 312 313 314 313 310 309 309 309 309 309 311 313 315 317 318 317 318 318 319
310 310 310 312 311 308 308 306 309 312 313 312 313 313 312 311 310 312 309 307 304 303 304 305 307 310 312 313 313 312 308 308 309 309 308 308 308 309 309 309 309 309 308 308
305 306 309 306 309 309 306 306 305 310 312 304 305 304 304 307 311 311 306 304 303 304 304 305 308 311 311 311 311 310 307 308 308 309 309 309 308 308 308 308 308 308 308 308
308 307 309 307 307 306 304 304 304 313 308 302 302 301 301 304 304 303 302 302 303 303 304 305 306 308 310 310 308 308 306 306 307 308 308 309 309 309 308 309 309 309 309 309
306 307 307 305 306 306 302 304 308 304 300 298 297 297 295 296 297 297 301 303 304 305 305 304 305 306 307 307 306 307 306 305 306 307 307 308 308 308 309 309 309 309 309 309
304 304 305 306 306 301 300 301 298 298 297 295 294 292 292 293 294 294 298 301 303 304 303 302 302 304 305 305 305 305 305 305 304 305 306 306 307 307 307 308 308 308 308 308
300 299 304 302 303 301 300 296 296 294 293 293 292 292 292 294 294 294 295 298 300 302 302 302 301 301 303 304 303 303 303 304 304 304 304 304 306 306 306 306 306 306 306 306
302 301 302 303 302 300 295 293 292 292 293 292 292 292 292 292 293 293 295 297 297 298 299 299 300 300 300 301 301 301 301 301 301 302 303 303 304 304 304 304 305 305 305 305
299 303 304 305 298 299 294 289 291 291 292 293 293 292 291 290 291 292 293 295 296 296 297 297 297 298 299 300 300 300 299 300 300 300 301 301 301 302 302 302 303 302 301 301
Wind_Speed
19 9 15 13 19 16 15 10 17 15 11 17 20 23 20 28 29 29 29 30 30 32 30 33 33 33 33 30 31 33 36 36 38 40 42 43 41 38 38 37 35 33 33 31
6 17 17 14 15 15 17 18 18 13 10 15 20 27 23 28 33 32 33 35 35 34 34 31 37 39 37 37 36 35 36 38 39 41 41 43 42 42 41 39 39 38 37 36
17 4 15 12 13 17 18 17 15 19 12 12 15 31 26 25 36 35 36 38 37 38 38 37 42 43 46 43 41 40 39 39 41 41 42 44 42 43 44 44 43 43 41 39
14 14 16 15 16 13 17 16 19 19 12 13 6 15 23 20 23 22 23 24 30 31 32 39 41 37 42 51 48 44 41 42 44 42 46 48 49 49 45 45 43 44 43 42
9 13 18 15 15 16 16 10 13 17 16 12 20 10 15 10 16 19 22 25 30 30 30 33 40 41 42 43 51 51 48 45 45 45 47 49 50 49 48 47 44 44 43 44
16 2 15 22 12 17 4 14 9 3 0 7 15 12 22 13 17 17 25 27 27 25 25 28 33 34 37 41 43 50 51 50 45 44 47 49 50 49 52 51 49 47 45 44
15 19 3 7 17 15 14 5 3 6 5 8 3 12 22 10 12 11 17 24 21 25 25 27 29 29 33 37 40 39 50 56 54 49 47 48 49 50 53 51 51 49 49 47
14 9 22 14 15 7 20 16 7 8 8 6 3 11 8 5 12 20 21 24 26 27 24 26 29 32 34 30 31 33 43 51 56 53 51 51 50 52 53 52 52 51 49 46
11 11 5 12 15 16 8 9 8 4 1 2 6 13 14 15 18 20 17 14 13 16 19 24 24 23 23 30 34 29 36 43 49 55 55 53 52 53 53 51 52 50 48 45
6 6 5 14 16 19 19 8 7 4 4 7 13 13 14 8 15 14 8 1 8 18 24 23 26 23 21 22 26 25 30 34 39 45 51 53 56 56 52 50 52 49 46 45
10 7 5 11 13 16 8 8 10 6 6 8 10 12 8 16 12 10 5 7 17 16 26 27 32 33 30 19 15 20 29 29 34 38 43 46 50 52 52 51 50 49 47 46
22 3 7 17 4 19 22 19 17 8 9 6 4 13 5 7 10 9 11 12 16 22 37 34 35 35 35 29 20 19 25 30 29 33 37 41 43 47 49 49 48 47 46 44
12 6 4 4 6 3 16 20 18 14 2 8 7 12 3 2 7 5 12 17 21 31 37 37 34 33 32 35 26 19 28 28 30 30 34 37 39 43 47 47 45 44 42 40
22 7 12 11 1 4 5 18 17 16 7 18 13 27 20 14 17 23 30 31 25 27 31 38 37 40 39 34 28 22 23 28 29 29 29 33 35 38 41 41 40 40 39 37
12 7 13 12 3 1 3 9 18 18 24 9 25 22 27 18 16 20 27 33 34 28 28 35 38 41 39 27 27 27 24 24 28 28 27 29 32 33 34 35 35 35 35 33
7 3 4 5 12 11 9 13 15 20 23 21 29 23 25 35 31 29 28 25 30 31 30 34 37 42 38 34 30 25 21 22 24 27 27 30 30 29 30 31 31 30 30 30
12 6 6 5 7 7 10 22 21 20 18 23 21 28 18 23 17 23 28 25 30 36 38 36 38 40 33 31 27 23 17 16 20 20 21 25 25 25 26 26 27 27 27 27
7 6 4 3 3 6 1 1 19 24 24 22 23 23 22 23 25 28 29 27 27 30 36 38 37 38 35 29 27 20 14 11 14 16 16 18 21 21 22 23 23 23 24 25
6 5 4 4 6 7 10 7 7 10 9 12 22 19 25 20 15 17 6 22 26 29 34 36 34 34 31 24 22 23 16 11 7 12 15 15 16 18 19 19 19 20 21 22
3 2 4 4 4 7 2 1 4 6 8 5 3 6 9 7 4 8 22 29 31 33 33 33 28 24 26 20 21 21 18 14 9 7 10 14 15 17 16 16 17 17 18 19
5 2 9 6 6 7 10 8 1 7 1 3 4 7 9 3 4 23 28 30 30 33 33 31 26 20 21 21 17 20 19 16 12 12 12 14 15 16 16 18 17 16 16 17
10 9 7 5 6 11 9 4 8 3 4 3 1 1 5 10 17 15 25 30 33 33 34 31 29 24 18 17 18 18 20 19 18 17 18 18 20 20 18 17 17 16 16 16
7 7 7 11 7 1 5 2 7 2 1 2 3 7 12 15 18 21 24 27 30 32 31 29 27 25 22 17 17 17 19 21 20 23 22 21 22 20 20 19 17 17 18 18
5 6 4 3 6 7 8 5 5 3 2 6 9 11 13 17 22 25 24 26 27 28 30 28 27 25 22 20 17 16 16 18 21 21 23 21 22 20 19 18 17 18 18 19
3 12 7 4 3 4 4 6 5 3 5 8 11 15 17 18 21 24 27 27 27 26 27 27 25 25 23 20 19 17 16 15 16 19 20 21 21 20 20 21 20 19 20 20
6 6 7 5 3 2 4 6 4 5 8 12 15 18 18 18 21 24 26 26 27 27 25 26 23 21 21 22 19 18 17 17 15 15 17 17 17 18 19 20 19 18 15 16
Wind_Direction
196 205 211 193 224 238 244 271 253 264 275 269 267 269 262 267 265 264 265 268 268 268 265 257 248 248 246 245 246 242 237 236 233 232 233 235 236 235 235 235 235 235 234 234
180 217 216 219 220 226 229 249 249 255 268 277 278 274 271 269 266 261 265 267 265 264 262 256 254 251 245 243 242 241 241 237 234 234 236 237 239 239 239 239 238 237 236 235
203 202 188 189 199 223 234 241 255 257 273 274 294 282 267 255 258 260 255 260 265 261 260 257 259 252 249 246 241 241 241 241 239 236 234 237 236 239 241 240 239 238 238 238
224 212 188 207 224 209 233 231 246 255 261 263 253 284 282 281 267 259 257 254 260 259 257 263 260 250 247 246 246 244 242 241 239 234 235 235 235 237 239 240 240 241 239 240
195 201 209 213 212 219 249 226 248 241 246 265 253 269 271 261 263 264 267 261 264 266 267 263 268 265 258 254 248 246 243 241 242 240 236 238 238 241 244 245 245 244 242 242
222 311 217 225 207 214 201 231 229 240 229 244 230 223 281 259 259 265 270 271 269 275 276 277 276 277 265 257 250 249 246 243 240 241 241 241 242 242 242 243 245 245 244 242
215 227 220 184 207 213 208 155 206 208 199 247 159 193 247 322 299 255 267 269 287 289 285 281 277 283 278 252 253 252 248 244 242 242 244 245 244 243 242 245 247 246 246 245
200 205 212 196 213 190 203 202 219 235 218 231 139 229 262 284 281 259 272 273 289 300 302 293 294 293 278 269 257 256 252 246 244 245 247 247 244 243 243 243 246 246 248 250
190 224 198 206 204 193 168 204 233 272 173 260 232 254 269 251 260 266 272 284 308 325 327 328 325 303 283 269 267 265 256 250 246 247 250 249 245 243 243 243 244 247 248 251
180 221 194 186 196 223 230 161 196 190 242 246 251 267 256 275 282 261 235 308 340 351 354 358 1 343 305 276 266 258 255 251 252 252 252 252 248 245 244 243 242 244 247 248
200 231 144 159 201 188 194 220 223 247 229 238 263 260 264 239 262 278 264 322 322 320 341 351 358 355 343 311 300 278 263 257 259 253 251 252 249 245 242 243 243 244 245 247
206 164 227 227 258 233 201 201 191 203 197 229 278 263 161 238 262 278 299 306 339 318 316 319 322 329 340 334 304 307 272 254 263 255 251 251 249 247 244 244 245 245 246 246
159 196 212 204 255 236 216 214 205 218 117 215 211 253 190 203 289 308 308 310 306 314 313 315 320 323 330 333 323 280 294 269 264 264 252 248 248 247 245 244 243 245 247 247
167 191 218 234 120 143 204 210 196 204 214 236 237 265 256 272 294 293 298 302 302 308 306 309 310 311 314 316 317 300 264 277 262 260 255 249 246 245 245 244 244 243 243 244
177 207 213 227 152 185 208 217 216 216 228 230 248 251 270 273 276 281 288 291 298 301 299 304 306 313 313 311 318 308 284 266 261 256 256 252 247 244 243 243 242 242 242 240
181 192 161 238 219 214 227 239 236 229 235 242 255 264 267 272 278 277 291 301 301 301 304 302 301 302 306 305 306 304 288 273 261 253 251 250 248 245 238 238 239 239 239 238
172 147 158 238 206 215 245 232 226 233 229 234 247 253 267 271 280 296 301 304 300 303 306 306 303 302 305 302 306 307 296 279 263 257 247 245 240 234 233 232 232 233 235 236
158 147 149 220 116 225 267 329 221 223 236 234 250 260 270 286 303 297 296 303 312 320 318 314 312 312 313 303 301 300 294 289 277 266 253 238 233 232 232 231 231 232 235 236
187 144 176 195 201 309 275 224 190 184 238 248 247 271 286 302 289 303 70 336 334 327 320 319 301 307 314 301 289 288 279 258 268 260 251 238 227 222 222 225 227 228 231 233
102 74 163 169 208 231 248 276 208 151 255 87 118 58 20 11 335 321 331 328 332 335 339 332 314 307 314 308 285 275 267 270 264 250 245 235 223 217 217 222 230 234 235 237
150 157 211 196 227 272 250 235 310 193 211 126 26 19 13 356 290 302 323 331 335 337 343 345 330 315 307 304 287 274 263 258 253 247 237 238 235 230 224 226 230 236 240 244
167 175 198 182 230 256 210 143 216 97 102 147 170 87 311 288 301 310 325 328 334 337 341 345 344 333 317 304 291 277 273 269 252 236 244 243 243 242 237 238 240 243 248 249
191 192 183 195 208 50 181 133 146 148 118 358 342 330 329 322 321 325 327 327 327 332 338 343 343 339 326 312 300 292 277 266 260 255 237 240 245 244 243 243 242 244 248 250
226 176 217 152 201 219 173 141 166 167 309 318 325 332 334 321 321 322 327 329 328 327 330 336 340 336 330 319 308 298 289 277 267 258 259 247 241 248 249 249 252 253 253 257
175 163 174 245 244 149 167 185 195 277 308 311 320 324 324 318 315 318 321 325 324 323 323 326 331 331 328 322 310 303 295 285 278 267 258 250 248 240 230 230 236 245 249 252
194 172 195 211 156 278 114 190 232 280 302 313 320 322 322 319 318 317 317 319 318 318 315 317 321 323 324 320 312 306 299 290 276 267 259 249 241 236 233 231 226 224 227 233